Weather History for KSNL - February, 2013

Change the Weather History Date:

Wednesday, February 6, 2013

  Actual Average (KTIK) Record (KTIK)
Temperature  
Mean Temperature 53 °F -  
Max Temperature 60 °F 48 °F 71 °F (2009)
Min Temperature 46 °F 29 °F 6 °F (2014)
Degree Days  
Heating Degree Days 12    
Growing Degree Days 3 (Base 50)    
Moisture  
Dew Point 54 °F    
Average Humidity 99    
Maximum Humidity 100    
Minimum Humidity 88    
Precipitation  
Precipitation 0.00 in - - ()
Sea Level Pressure  
Sea Level Pressure 29.98 in    
Wind  
Wind Speed 6 mph (SSE)    
Max Wind Speed 18 mph    
Max Gust Speed 26 mph    
Visibility 4 miles    
Events Fog    
Averages and records for this station are not official NWS values.
T = Trace of Precipitation, MM = Missing Value Source: NWS Daily Summary

Daily Weather History Graph

Daily Weather History Graph

Search for Another Location

Airport or City:

Trip Planner

Search our weather history database for the weather conditions in past years. The results will help you decide how hot, cold, wet, or windy it might be!

Date:

Astronomy

Feb. 06, 2013 Rise Set
Actual Time 7:22 AM CST 6:01 PM CST
Civil Twilight 6:56 AM CST 6:27 PM CST
Nautical Twilight 6:26 AM CST 6:57 PM CST
Astronomical Twilight 5:56 AM CST 7:27 PM CST
Moon 4:03 AM CST (2/6) 2:24 PM CST (2/6)
Length of Visible Light 11h 31m
Length of Day
10h 38m
Waning Crescent, 17% of the Moon is Illuminated
Feb 6
Waning Crescent
Feb 10
New
Feb 17
First Quarter
Feb 25
Full
Mar 4
Last Quarter

Hourly Weather History & Observations

Time (CST) Temp. Windchill Dew Point Humidity Pressure Visibility Wind Dir Wind Speed Gust Speed Precip Events Conditions
12:15 AM 48.2 °F - 48.2 °F 100% 30.04 in 0.2 mi Calm Calm - N/A Fog Fog
12:35 AM 48.2 °F - 48.2 °F 100% 30.05 in 0.2 mi Calm Calm - N/A Fog Fog
12:55 AM 48.2 °F - 48.2 °F 100% 30.05 in 0.2 mi Calm Calm - N/A Fog Fog
1:15 AM 48.2 °F - 48.2 °F 100% 30.06 in 0.2 mi Calm Calm - N/A Fog Fog
1:35 AM 48.2 °F - 48.2 °F 100% 30.05 in 0.2 mi Calm Calm - N/A Fog Fog
1:55 AM 48.2 °F - 48.2 °F 100% 30.05 in 0.2 mi Calm Calm - N/A   Unknown
2:15 AM 48.2 °F - 48.2 °F 100% 30.04 in 0.2 mi Calm Calm - N/A Fog Fog
2:35 AM 48.2 °F - 48.2 °F 100% 30.04 in 0.2 mi Calm Calm - N/A Fog Fog
2:55 AM 48.2 °F - 48.2 °F 100% 30.04 in 0.2 mi Calm Calm - N/A Fog Fog
3:15 AM 48.2 °F - 48.2 °F 100% 30.03 in 0.2 mi Calm Calm - N/A Fog Fog
3:35 AM 48.2 °F - 48.2 °F 100% 30.02 in 0.2 mi Calm Calm - N/A Fog Fog
3:55 AM 48.2 °F - 48.2 °F 100% 30.02 in 0.2 mi Calm Calm - N/A Fog Fog
4:15 AM 46.4 °F - 46.4 °F 100% 30.03 in 0.2 mi Calm Calm - N/A Fog Fog
4:35 AM 46.4 °F - 46.4 °F 100% 30.03 in 0.2 mi Calm Calm - N/A Fog Fog
4:55 AM 46.4 °F - 46.4 °F 100% 30.03 in 0.2 mi Calm Calm - N/A Fog Fog
5:15 AM 46.4 °F - 46.4 °F 100% 30.04 in 0.2 mi Calm Calm - N/A Fog Fog
5:35 AM 46.4 °F 44.3 °F 46.4 °F 100% 30.05 in 0.2 mi SE 4.6 mph - N/A Fog Fog
5:55 AM 46.4 °F - 46.4 °F 100% 30.04 in 0.5 mi Calm Calm - N/A Fog Fog
6:15 AM 48.2 °F - 48.2 °F 100% 30.04 in 0.2 mi SE 3.5 mph - N/A Fog Fog
6:35 AM 48.2 °F - 48.2 °F 100% 30.04 in 0.2 mi SE 4.6 mph - N/A Fog Fog
7:15 AM 48.2 °F - 48.2 °F 100% 30.04 in 2.0 mi SE 5.8 mph - N/A   Overcast
7:35 AM 51.8 °F - 51.8 °F 100% 30.04 in 2.0 mi SE 6.9 mph - N/A   Overcast
7:55 AM 51.8 °F - 51.8 °F 100% 30.04 in 2.5 mi SE 6.9 mph - N/A   Overcast
8:15 AM 51.8 °F - 51.8 °F 100% 30.04 in 2.5 mi SSE 6.9 mph - N/A   Overcast
8:35 AM 51.8 °F - 51.8 °F 100% 30.04 in 2.5 mi SE 8.1 mph - N/A   Overcast
8:55 AM 51.8 °F - 51.8 °F 100% 30.04 in 3.0 mi SE 8.1 mph - N/A   Overcast
9:15 AM 51.8 °F - 51.8 °F 100% 30.04 in 3.0 mi SE 6.9 mph - N/A   Overcast
9:35 AM 51.8 °F - 51.8 °F 100% 30.04 in 3.0 mi SE 9.2 mph - N/A   Overcast
9:55 AM 53.6 °F - 53.6 °F 100% 30.04 in 3.0 mi SSE 9.2 mph - N/A   Overcast
10:15 AM 53.6 °F - 53.6 °F 100% 30.04 in 4.0 mi SSE 12.7 mph 18.4 mph N/A   Overcast
10:35 AM 53.6 °F - 53.6 °F 100% 30.04 in 3.0 mi SE 11.5 mph - N/A   Overcast
10:55 AM 55.4 °F - 55.4 °F 100% 30.03 in 3.0 mi SE 10.4 mph - N/A   Overcast
11:15 AM 55.4 °F - 55.4 °F 100% 30.02 in 2.5 mi SSE 10.4 mph - N/A   Overcast
11:35 AM 55.4 °F - 55.4 °F 100% 30.01 in 1.8 mi SSE 11.5 mph - N/A   Overcast
11:55 AM 57.2 °F - 57.2 °F 100% 30.00 in 2.5 mi SE 11.5 mph - N/A   Overcast
12:15 PM 59.0 °F - 59.0 °F 100% 29.99 in 3.0 mi SE 11.5 mph - N/A   Overcast
12:35 PM 59.0 °F - 59.0 °F 100% 29.98 in 3.0 mi SE 12.7 mph 17.3 mph N/A   Overcast
12:55 PM 60.8 °F - 60.8 °F 100% 29.97 in 4.0 mi SSE 15.0 mph - N/A   Overcast
1:15 PM 60.8 °F - 60.8 °F 100% 29.96 in 5.0 mi SSE 11.5 mph - N/A   Overcast
1:35 PM 59.0 °F - 59.0 °F 100% 29.96 in 4.0 mi SSE 13.8 mph - N/A   Overcast
1:55 PM 60.8 °F - 60.8 °F 100% 29.94 in 4.0 mi SSE 12.7 mph - N/A   Overcast
2:15 PM 60.8 °F - 60.8 °F 100% 29.93 in 4.0 mi SE 12.7 mph - N/A   Overcast
2:35 PM 60.8 °F - 60.8 °F 100% 29.92 in 5.0 mi SSE 13.8 mph 19.6 mph N/A   Overcast
2:55 PM 60.8 °F - 60.8 °F 100% 29.92 in 5.0 mi SSE 11.5 mph 19.6 mph N/A   Overcast
3:15 PM 60.8 °F - 60.8 °F 100% 29.92 in 5.0 mi SSE 12.7 mph - N/A   Overcast
3:35 PM 60.8 °F - 60.8 °F 100% 29.91 in 4.0 mi SSE 17.3 mph - N/A   Overcast
3:55 PM 59.0 °F - 59.0 °F 100% 29.91 in 3.0 mi SE 13.8 mph - N/A   Overcast
4:15 PM 59.0 °F - 59.0 °F 100% 29.91 in 5.0 mi SE 12.7 mph - N/A   Overcast
4:35 PM 59.0 °F - 59.0 °F 100% 29.91 in 7.0 mi SSE 16.1 mph 21.9 mph N/A   Overcast
4:55 PM 59.0 °F - 59.0 °F 100% 29.90 in 5.0 mi SSE 12.7 mph - N/A   Overcast
5:15 PM 59.0 °F - 57.2 °F 94% 29.90 in 7.0 mi SSE 10.4 mph - N/A   Overcast
5:35 PM 59.0 °F - 57.2 °F 94% 29.89 in 10.0 mi SE 11.5 mph - N/A   Overcast
5:55 PM 59.0 °F - 57.2 °F 94% 29.89 in 10.0 mi SE 10.4 mph 18.4 mph N/A   Overcast
6:15 PM 59.0 °F - 57.2 °F 94% 29.89 in 10.0 mi SE 12.7 mph - N/A   Overcast
6:35 PM 59.0 °F - 55.4 °F 88% 29.89 in 10.0 mi SSE 16.1 mph - N/A   Overcast
6:55 PM 59.0 °F - 55.4 °F 88% 29.90 in 10.0 mi SSE 11.5 mph 18.4 mph N/A   Mostly Cloudy
7:15 PM 57.2 °F - 55.4 °F 94% 29.90 in 10.0 mi SSE 11.5 mph 17.3 mph N/A   Scattered Clouds
7:35 PM 55.4 °F - 53.6 °F 94% 29.90 in 10.0 mi SSE 16.1 mph 19.6 mph N/A   Scattered Clouds
7:55 PM 55.4 °F - 55.4 °F 100% 29.91 in 10.0 mi SE 9.2 mph - N/A   Mostly Cloudy
8:15 PM 55.4 °F - 55.4 °F 100% 29.91 in 10.0 mi SSE 10.4 mph 16.1 mph N/A   Overcast
8:35 PM 55.4 °F - 55.4 °F 100% 29.91 in 10.0 mi SSE 12.7 mph 16.1 mph N/A   Overcast
8:55 PM 55.4 °F - 55.4 °F 100% 29.91 in 10.0 mi SSE 13.8 mph - N/A   Overcast
9:15 PM 55.4 °F - 55.4 °F 100% 29.91 in 10.0 mi SSE 16.1 mph - N/A   Overcast
9:35 PM 55.4 °F - 55.4 °F 100% 29.92 in 10.0 mi South 16.1 mph 20.7 mph N/A   Overcast
10:15 PM 55.4 °F - 55.4 °F 100% 29.92 in 7.0 mi South 18.4 mph 26.5 mph N/A   Overcast
10:35 PM 55.4 °F - 55.4 °F 100% 29.92 in 7.0 mi South 15.0 mph 23.0 mph N/A   Overcast
10:55 PM 55.4 °F - 55.4 °F 100% 29.92 in 5.0 mi South 15.0 mph - N/A   Overcast
11:15 PM 55.4 °F - 55.4 °F 100% 29.92 in 4.0 mi South 16.1 mph 21.9 mph N/A   Overcast
11:35 PM 55.4 °F - 55.4 °F 100% 29.91 in 3.0 mi SSE 12.7 mph 19.6 mph N/A   Overcast